EW7651 Weather Reports


time (UTC)temp
C
wind
direction
speed
KPH
gust
KPH
rain 1hr
cm
rain 24hr
cm
rain mn
cm
humidity
%
barometer
mb
20260507141559 15 299 0.0 0.0 0.00 0.00 0.00 53 1014.2
20260507140059 15 221 0.0 0.0 0.00 0.00 0.00 53 1014.3
20260507134551 15 63 0.0 0.0 0.00 0.00 0.00 50 1014.4
20260507133048 15 257 0.0 0.0 0.00 0.00 0.00 50 1014.4
20260507131548 16 262 0.0 0.0 0.00 0.00 0.00 50 1014.4
20260507130048 17 260 0.0 0.0 0.00 0.00 0.00 53 1014.2
20260507124534 19 201 0.0 0.0 0.00 0.00 0.00 50 1014.1
20260507123033 19 277 0.0 0.0 0.00 0.00 0.00 46 1014.0
20260507121526 19 140 0.0 0.0 0.00 0.00 0.00 45 1014.1
20260507120021 18 267 0.0 0.0 0.00 0.00 0.00 49 1014.1
20260507114521 19 218 0.0 0.0 0.00 0.00 0.00 48 1014.1
20260507113024 18 98 0.0 0.0 0.00 0.00 0.00 48 1014.2
20260507111517 18 82 0.0 0.0 0.00 0.00 0.00 45 1014.2
20260507110010 17 227 0.0 0.0 0.00 0.00 0.00 50 1014.4
20260507104505 17 85 0.0 0.0 0.00 0.00 0.00 52 1014.4
20260507103129 17 202 0.0 0.0 0.00 0.00 0.00 51 1014.4
20260507101556 17 225 0.0 0.0 0.00 0.00 0.00 53 1014.4
20260507100106 16 115 0.0 0.0 0.00 0.00 0.00 53 1014.3
20260507094550 16 269 0.0 0.0 0.00 0.00 0.00 51 1014.3
20260507093045 16 134 0.0 0.0 0.00 0.00 0.00 45 1014.2
20260507091545 15 85 0.0 0.0 0.00 0.00 0.00 34 1014.1
20260507090036 15 235 0.0 0.0 0.00 0.00 0.00 39 1014.1
20260507084543 15 182 0.0 0.0 0.00 0.00 0.00 36 1014.1
20260507083032 14 268 0.0 0.0 0.00 0.00 0.00 30 1014.0
20260507081528 13 199 0.0 0.0 0.00 0.00 0.00 22 1014.1
20260507080022 13 211 0.0 0.0 0.00 0.00 0.00 1 1014.0
20260507074518 12 231 0.0 0.0 0.00 0.00 0.00 1 1013.9
20260507073015 11 200 0.0 0.0 0.00 0.00 0.00 1 1013.8
20260507071512 11 211 0.0 0.0 0.00 0.00 0.00 1 1013.7
20260507070010 10 220 0.0 0.0 0.00 0.00 0.00 1 1013.7
20260507064506 10 193 0.0 0.0 0.00 0.00 0.00 1 1013.7
20260507063004 9 124 0.0 0.0 0.00 0.00 0.00 1 1013.7
20260507061558 9 175 0.0 0.0 0.00 0.00 0.00 1 1013.6
20260507060058 8 207 0.0 0.0 0.00 0.00 0.00 1 1013.6
20260507054607 8 207 0.0 0.0 0.00 0.00 0.00 1 1013.5
20260507053051 7 211 0.0 0.0 0.00 0.00 0.00 1 1013.3
20260507051548 7 212 0.0 0.0 0.00 0.00 0.00 1 1013.2
20260507050045 7 215 0.0 0.0 0.00 0.00 0.00 1 1013.0
20260507044539 7 215 0.0 0.0 0.00 0.00 0.00 1 1012.9
20260507043029 7 215 0.0 0.0 0.00 0.00 0.00 1 1012.8
20260507041524 7 215 0.0 0.0 0.00 0.00 0.00 1 1012.7
20260507040020 7 215 0.0 0.0 0.00 0.00 0.00 1 1012.6
20260507034521 7 215 0.0 0.0 0.00 0.00 0.00 1 1012.5
20260507033014 7 215 0.0 0.0 0.00 0.00 0.00 1 1012.4
20260507031509 7 215 0.0 0.0 0.00 0.00 0.00 1 1012.4
20260507030006 7 215 0.0 0.0 0.00 0.00 0.00 1 1012.2
20260507024502 7 215 0.0 0.0 0.00 0.00 0.00 1 1012.2
20260507023058 7 215 0.0 0.0 0.00 0.00 0.00 1 1012.1
20260507021615 8 215 0.0 0.0 0.00 0.00 0.00 1 1012.1
20260507020107 8 215 0.0 0.0 0.00 0.00 0.00 1 1012.0
20260507014616 8 215 0.0 0.0 0.00 0.00 0.00 1 1011.9
20260507013047 8 215 0.0 0.0 0.00 0.00 0.00 1 1011.8
20260507011543 8 215 0.0 0.0 0.00 0.00 0.00 1 1011.8
20260507010042 9 215 0.0 0.0 0.00 0.00 0.00 1 1011.7
20260507004532 9 215 0.0 0.0 0.00 0.00 0.00 1 1011.6
20260507003027 9 215 0.0 0.0 0.00 0.00 0.00 1 1011.6
20260507001526 10 214 0.0 0.0 0.00 0.00 0.00 1 1011.5
20260507000025 10 215 0.0 0.0 0.00 0.00 0.00 1 1011.4
20260506234518 10 216 0.0 0.0 0.00 0.00 0.00 1 1011.4
20260506233014 11 207 0.0 0.0 0.00 0.00 0.00 1 1011.3
20260506231510 11 234 0.0 0.0 0.00 0.00 0.00 5 1011.2
20260506230005 11 98 0.0 0.0 0.00 0.00 0.00 11 1011.2
20260506224503 11 183 0.0 0.0 0.00 0.00 0.00 17 1011.1
20260506223105 11 135 0.0 0.0 0.00 0.00 0.00 23 1011.0
20260506223001 11 135 0.0 0.0 0.00 0.00 0.00 24 1011.0
20260506221604 11 136 0.0 0.0 0.00 0.00 0.00 27 1010.9
20260506220056 12 165 0.0 0.0 0.00 0.00 0.00 31 1010.9
20260506214558 12 199 0.0 0.0 0.00 0.00 0.00 34 1010.7
20260506213057 12 194 0.0 0.0 0.00 0.00 0.00 35 1010.6
20260506211553 12 194 0.0 0.0 0.00 0.00 0.00 35 1010.5
20260506210047 12 255 0.0 0.0 0.00 0.00 0.00 42 1010.4
20260506204543 12 255 0.0 0.0 0.00 0.00 0.00 44 1010.3
20260506203039 12 256 0.0 0.0 0.00 0.00 0.00 41 1010.3
20260506201538 12 250 0.0 0.0 0.00 0.00 0.00 40 1010.1
20260506200032 12 250 0.0 0.0 0.00 0.00 0.00 42 1010.0
20260506194526 12 250 0.0 0.0 0.00 0.00 0.00 45 1009.8
20260506193033 12 250 0.0 0.0 0.00 0.00 0.00 48 1009.7
20260506191518 12 250 0.0 0.0 0.00 0.00 0.00 52 1009.6
20260506190014 13 250 0.0 0.0 0.00 0.00 0.00 52 1009.4
20260506184511 13 250 0.0 0.0 0.00 0.00 0.00 52 1009.3
20260506183006 13 250 0.0 0.0 0.00 0.00 0.00 53 1009.1
20260506181504 13 250 0.0 0.0 0.00 0.00 0.00 53 1008.9
20260506180059 13 250 0.0 0.0 0.00 0.00 0.00 53 1008.7
20260506174556 13 250 0.0 0.0 0.00 0.00 0.00 54 1008.6
20260506173119 13 250 0.0 0.0 0.00 0.00 0.00 54 1008.4
20260506171548 13 252 0.0 0.0 0.00 0.00 0.00 54 1008.3
20260506164540 14 165 0.0 0.0 0.00 0.00 0.00 53 1008.1
20260506163045 15 157 0.0 0.0 0.00 0.00 0.00 53 1008.0
20260506161531 16 194 0.0 0.0 0.00 0.00 0.00 46 1007.9
20260506160028 16 153 0.0 0.0 0.00 0.00 0.00 46 1007.9
20260506154526 16 5 0.0 0.0 0.00 0.00 0.00 47 1007.8
20260506153024 16 281 0.0 0.0 0.00 0.00 0.00 47 1007.8
20260506151516 15 163 0.0 1.6 0.00 0.00 0.00 35 1007.8
20260506150016 15 112 0.0 0.0 0.00 0.00 0.00 38 1007.8
20260506144510 16 215 0.0 0.0 0.00 0.00 0.00 52 1007.7
20260506143011 16 147 0.0 0.0 0.00 0.00 0.00 52 1007.6